When you browse on this site, cookies collect data to enhance your experience and personalize the content and advertising you see.
Visit our Privacy Policy to learn more. By continuing to use the site, you agree to this use of cookies and data.
  • In Portugal
  • List of Countries
  • For 7 days
  • Water Temperature
  • Satellite Maps
  • Weather Map
  • Weather Widgets
  • user-avatar
    Login

    Hourly Weather Salta

    Today, 22 March, Friday

    Time Temperature Precipitation Wind Pressure Humidity
    00:00 +13°C° 0 mm 1 mps 651 mmHg 94%
    01:00 +12°C° 0 mm 0 mps 650 mmHg 94%
    02:00 +12°C° 0 mm 0 mps 650 mmHg 94%
    03:00 +12°C° 0 mm 0 mps 650 mmHg 94%
    04:00 +12°C° 0 mm 0 mps 650 mmHg 94%
    05:00 +13°C° 0 mm 1 mps 650 mmHg 94%
    06:00 +14°C° 0 mm 1 mps 650 mmHg 90%
    07:00 +15°C° 0 mm 1 mps 651 mmHg 87%
    08:00 +16°C° 0 mm 1 mps 652 mmHg 82%
    09:00 +18°C° 0 mm 1 mps 652 mmHg 77%
    10:00 +19°C° 0 mm 2 mps 653 mmHg 73%
    11:00 +20°C° 0 mm 2 mps 653 mmHg 68%
    12:00 +21°C° 0 mm 2 mps 653 mmHg 64%
    13:00 +24°C° 0 mm 2 mps 653 mmHg 60%
    14:00 +25°C° 0 mm 2 mps 652 mmHg 56%
    15:00 +24°C° 0 mm 2 mps 652 mmHg 57%
    16:00 +24°C° 0 mm 2 mps 652 mmHg 58%
    17:00 +24°C° 0 mm 2 mps 651 mmHg 59%
    18:00 +21°C° 0 mm 1 mps 651 mmHg 69%
    19:00 +19°C° 0 mm 1 mps 651 mmHg 78%
    20:00 +15°C° 0 mm 0 mps 651 mmHg 87%
    21:00 +15°C° 0 mm 0 mps 651 mmHg 88%
    22:00 +14°C° 0 mm 0 mps 652 mmHg 89%
    23:00 +14°C° 0 mm 0 mps 652 mmHg 91%

    Tomorrow, 23 March, Saturday

    Time Temperature Precipitation Wind Pressure Humidity
    00:00 +14°C° 0 mm 0 mps 652 mmHg 91%
    01:00 +13°C° 0 mm 0 mps 652 mmHg 91%
    02:00 +13°C° 0 mm 0 mps 652 mmHg 92%
    03:00 +13°C° 0 mm 0 mps 652 mmHg 92%
    04:00 +13°C° 0 mm 0 mps 651 mmHg 92%
    05:00 +13°C° 0 mm 0 mps 651 mmHg 92%
    06:00 +14°C° 0 mm 0 mps 652 mmHg 88%
    07:00 +18°C° 0 mm 1 mps 653 mmHg 84%
    08:00 +19°C° 0 mm 1 mps 653 mmHg 80%
    09:00 +21°C° 0 mm 1 mps 653 mmHg 74%
    10:00 +21°C° 0 mm 2 mps 654 mmHg 69%
    11:00 +24°C° 0 mm 3 mps 654 mmHg 63%
    12:00 +25°C° 0 mm 3 mps 653 mmHg 61%
    13:00 +26°C° 0 mm 3 mps 652 mmHg 60%
    14:00 +26°C° 0 mm 3 mps 652 mmHg 58%
    15:00 +26°C° 0 mm 3 mps 651 mmHg 60%
    16:00 +25°C° 0 mm 3 mps 651 mmHg 63%
    17:00 +25°C° 0 mm 2 mps 650 mmHg 65%
    18:00 +23°C° 0 mm 2 mps 650 mmHg 73%
    19:00 +21°C° 0 mm 1 mps 650 mmHg 81%
    20:00 +19°C° 0 mm 1 mps 650 mmHg 89%
    21:00 +17°C° 0 mm 0 mps 651 mmHg 90%
    22:00 +16°C° 0 mm 0 mps 651 mmHg 92%
    23:00 +16°C° 0 mm 0 mps 651 mmHg 93%

    Day after tomorrow, 24 March, Sunday

    Time Temperature Precipitation Wind Pressure Humidity
    00:00 +16°C° 0 mm 0 mps 651 mmHg 93%
    01:00 +16°C° 0 mm 0 mps 651 mmHg 93%
    02:00 +15°C° 0 mm 0 mps 651 mmHg 94%
    03:00 +15°C° 0 mm 0 mps 651 mmHg 94%
    04:00 +15°C° 0 mm 0 mps 651 mmHg 94%
    05:00 +15°C° 0 mm 0 mps 651 mmHg 94%
    06:00 +16°C° 0 mm 0 mps 652 mmHg 89%
    07:00 +20°C° 0 mm 1 mps 653 mmHg 84%
    08:00 +21°C° 0 mm 1 mps 654 mmHg 79%
    09:00 +23°C° 0 mm 1 mps 655 mmHg 71%
    10:00 +25°C° 0 mm 1 mps 655 mmHg 63%
    11:00 +27°C° 0 mm 2 mps 656 mmHg 55%
    12:00 +27°C° 0.2 mm 2 mps 655 mmHg 53%
    13:00 +28°C° 0.2 mm 2 mps 655 mmHg 52%
    14:00 +28°C° 0.2 mm 2 mps 654 mmHg 50%
    15:00 +27°C° 0.5 mm 2 mps 653 mmHg 57%
    16:00 +26°C° 0.5 mm 2 mps 652 mmHg 65%
    17:00 +24°C° 0.5 mm 2 mps 651 mmHg 73%
    18:00 +23°C° 1.3 mm 2 mps 651 mmHg 79%
    19:00 +21°C° 1.3 mm 1 mps 652 mmHg 86%
    20:00 +17°C° 1.3 mm 0 mps 652 mmHg 92%
    21:00 +17°C° 0.3 mm 0 mps 652 mmHg 93%
    22:00 +17°C° 0.3 mm 0 mps 652 mmHg 93%
    23:00 +16°C° 0.3 mm 0 mps 653 mmHg 93%

    25 March, Monday

    Time Temperature Precipitation Wind Pressure Humidity
    00:00 +16°C° 0 mm 0 mps 652 mmHg 93%
    01:00 +18°C° 0 mm 1 mps 652 mmHg 93%
    02:00 +18°C° 0 mm 1 mps 652 mmHg 92%
    03:00 +16°C° 0 mm 1 mps 651 mmHg 92%
    04:00 +15°C° 0 mm 0 mps 651 mmHg 92%
    05:00 +15°C° 0 mm 0 mps 651 mmHg 92%
    06:00 +16°C° 0 mm 0 mps 652 mmHg 89%
    07:00 +17°C° 0 mm 0 mps 652 mmHg 87%
    08:00 +18°C° 0 mm 0 mps 653 mmHg 84%
    09:00 +21°C° 0.1 mm 1 mps 653 mmHg 78%
    10:00 +23°C° 0.1 mm 1 mps 654 mmHg 72%
    11:00 +25°C° 0.1 mm 2 mps 654 mmHg 66%
    12:00 +25°C° 0.9 mm 2 mps 653 mmHg 67%
    13:00 +25°C° 0.9 mm 2 mps 652 mmHg 69%
    14:00 +25°C° 0.9 mm 2 mps 651 mmHg 70%
    15:00 +24°C° 1.8 mm 2 mps 651 mmHg 76%
    16:00 +23°C° 1.8 mm 2 mps 650 mmHg 82%
    17:00 +21°C° 1.8 mm 2 mps 650 mmHg 87%
    18:00 +21°C° 2.1 mm 1 mps 650 mmHg 90%
    19:00 +20°C° 2.1 mm 1 mps 651 mmHg 92%
    20:00 +19°C° 2.1 mm 1 mps 651 mmHg 94%
    21:00 +19°C° 1.1 mm 1 mps 652 mmHg 94%
    22:00 +18°C° 1.1 mm 1 mps 652 mmHg 94%
    23:00 +18°C° 1.1 mm 1 mps 653 mmHg 94%

    26 March, Tuesday

    Time Temperature Precipitation Wind Pressure Humidity
    00:00 +18°C° 0.6 mm 1 mps 653 mmHg 95%
    01:00 +18°C° 0.6 mm 1 mps 653 mmHg 95%
    02:00 +18°C° 0.6 mm 1 mps 652 mmHg 95%
    03:00 +18°C° 0.5 mm 1 mps 652 mmHg 96%
    04:00 +18°C° 0.5 mm 1 mps 652 mmHg 97%
    05:00 +16°C° 0.5 mm 1 mps 653 mmHg 97%
    06:00 +16°C° 0.8 mm 1 mps 653 mmHg 97%
    07:00 +16°C° 0.8 mm 1 mps 654 mmHg 96%
    08:00 +16°C° 0.8 mm 1 mps 654 mmHg 96%
    09:00 +16°C° 0.4 mm 1 mps 655 mmHg 96%
    10:00 +16°C° 0.4 mm 2 mps 655 mmHg 95%
    11:00 +16°C° 0.4 mm 2 mps 655 mmHg 95%
    12:00 +16°C° 0.1 mm 2 mps 654 mmHg 94%
    13:00 +15°C° 0.1 mm 1 mps 654 mmHg 94%
    14:00 +15°C° 0.1 mm 1 mps 653 mmHg 93%
    15:00 +15°C° 0.1 mm 1 mps 653 mmHg 93%
    16:00 +15°C° 0.1 mm 1 mps 653 mmHg 93%
    17:00 +15°C° 0.1 mm 1 mps 653 mmHg 92%
    18:00 +15°C° 0.1 mm 1 mps 653 mmHg 93%
    19:00 +15°C° 0.1 mm 1 mps 654 mmHg 94%
    20:00 +13°C° 0.1 mm 0 mps 654 mmHg 95%
    21:00 +13°C° 0.6 mm 0 mps 655 mmHg 95%
    22:00 +13°C° 0.6 mm 0 mps 655 mmHg 94%
    23:00 +13°C° 0.6 mm 0 mps 656 mmHg 94%

    27 March, Wednesday

    Time Temperature Precipitation Wind Pressure Humidity
    00:00 +13°C° 0.4 mm 0 mps 655 mmHg 95%
    01:00 +14°C° 0.4 mm 1 mps 655 mmHg 95%
    02:00 +14°C° 0.4 mm 1 mps 655 mmHg 96%
    03:00 +14°C° 0.1 mm 1 mps 655 mmHg 96%
    04:00 +14°C° 0.1 mm 1 mps 655 mmHg 96%
    05:00 +13°C° 0.1 mm 0 mps 655 mmHg 96%
    06:00 +14°C° 0 mm 1 mps 655 mmHg 95%
    07:00 +14°C° 0 mm 1 mps 655 mmHg 94%
    08:00 +15°C° 0 mm 1 mps 656 mmHg 93%
    09:00 +15°C° 0 mm 1 mps 656 mmHg 89%
    10:00 +16°C° 0 mm 2 mps 656 mmHg 85%
    11:00 +17°C° 0 mm 2 mps 656 mmHg 81%
    12:00 +17°C° 0.1 mm 2 mps 655 mmHg 81%
    13:00 +18°C° 0.1 mm 2 mps 654 mmHg 80%
    14:00 +18°C° 0.1 mm 2 mps 653 mmHg 80%
    15:00 +17°C° 0 mm 2 mps 653 mmHg 82%
    16:00 +18°C° 0 mm 1 mps 653 mmHg 84%
    17:00 +18°C° 0 mm 1 mps 652 mmHg 86%
    18:00 +16°C° 0 mm 1 mps 652 mmHg 89%
    19:00 +15°C° 0 mm 1 mps 653 mmHg 92%
    20:00 +14°C° 0 mm 1 mps 653 mmHg 95%
    21:00 +14°C° 0 mm 1 mps 653 mmHg 95%
    22:00 +14°C° 0 mm 1 mps 654 mmHg 95%
    23:00 +13°C° 0 mm 0 mps 654 mmHg 94%
    Show more